Weather History for KDUX - April, 2013

Change the Weather History Date:

Monday, April 1, 2013

  Actual Average (KBGD) Record (KBGD)
Temperature  
Mean Temperature 40 °F 55 °F  
Max Temperature 52 °F 69 °F 93 °F (2012)
Min Temperature 30 °F 41 °F 27 °F (1970)
Degree Days  
Heating Degree Days 24 11  
Month to date heating degree days 11  
Since 1 July heating degree days 3488  
Cooling Degree Days 0 0  
Month to date cooling degree days 0  
Year to date cooling degree days 7  
Moisture  
Dew Point 33 °F    
Average Humidity 71    
Maximum Humidity 88    
Minimum Humidity 49    
Precipitation  
Precipitation 0.00 in 0.05 in 0.67 in (1988)
Month to date precipitation 0.05  
Year to date precipitation 2.67  
Snow  
Snow 0.00 in - 5.00 in (1988)
Month to date snowfall  
Since 1 July snowfall  
Snow Depth -    
Sea Level Pressure  
Sea Level Pressure 30.05 in    
Wind  
Wind Speed 14 mph (NE)    
Max Wind Speed 31 mph    
Max Gust Speed 36 mph    
Visibility 10 miles    
Events      
T = Trace of Precipitation, MM = Missing Value Source: NWS Daily Summary

Daily Weather History Graph

Daily Weather History Graph

Search for Another Location

Airport or City:

Trip Planner

Search our weather history database for the weather conditions in past years. The results will help you decide how hot, cold, wet, or windy it might be!

Date:

Astronomy

Apr. 01, 2013 Rise Set
Actual Time 7:34 AM CDT 8:10 PM CDT
Civil Twilight 7:08 AM CDT 8:35 PM CDT
Nautical Twilight 6:37 AM CDT 9:06 PM CDT
Astronomical Twilight 6:06 AM CDT 9:37 PM CDT
Moon 1:11 AM CDT (4/1) 11:31 AM CDT (4/1)
Length of Visible Light 13h 27m
Length of Day
12h 36m
Waning Gibbous, 67% of the Moon is Illuminated
Apr 1
Waning Gibbous
Apr 2
Last Quarter
Apr 10
New
Apr 18
First Quarter
Apr 25
Full

Hourly Weather History & Observations

Time (CDT) Temp. Windchill Dew Point Humidity Pressure Visibility Wind Dir Wind Speed Gust Speed Precip Events Conditions
12:15 AM 50.4 °F - 32.0 °F 49% 29.98 in 10.0 mi South 10.4 mph - N/A   Clear
12:35 AM 50.0 °F - 32.0 °F 50% 29.98 in 10.0 mi South 10.4 mph - N/A   Clear
1:15 AM 50.0 °F - 32.0 °F 50% 29.98 in 10.0 mi South 11.5 mph - N/A   Clear
1:35 AM 50.9 °F - 33.3 °F 51% 29.98 in 10.0 mi South 13.8 mph - N/A   Clear
1:55 AM 50.5 °F - 34.2 °F 53% 29.98 in 10.0 mi South 12.7 mph - N/A   Clear
2:15 AM 49.5 °F - 34.5 °F 56% 29.98 in 10.0 mi South 10.4 mph - N/A   Clear
2:35 AM 49.5 °F - 34.9 °F 57% 29.98 in 10.0 mi South 10.4 mph - N/A   Clear
2:55 AM 49.1 °F - 35.4 °F 59% 29.97 in 10.0 mi South 10.4 mph - N/A   Clear
3:15 AM 50.9 °F - 37.4 °F 60% 29.97 in 10.0 mi South 13.8 mph - N/A   Clear
3:35 AM 50.2 °F - 37.8 °F 62% 29.97 in 10.0 mi South 12.7 mph - N/A   Clear
3:55 AM 51.3 °F - 39.0 °F 63% 29.97 in 10.0 mi SSW 16.1 mph 19.6 mph N/A   Clear
4:15 AM 50.9 °F - 38.7 °F 63% 29.97 in 10.0 mi SSW 12.7 mph - N/A   Clear
4:35 AM 50.0 °F - 38.7 °F 65% 29.97 in 10.0 mi South 13.8 mph - N/A   Clear
4:55 AM 48.7 °F - 38.7 °F 68% 29.97 in 10.0 mi South 10.4 mph - N/A   Clear
5:15 AM 47.3 °F - 38.3 °F 71% 29.97 in 10.0 mi South 9.2 mph - N/A   Clear
5:35 AM 47.1 °F - 38.3 °F 71% 29.98 in 10.0 mi South 10.4 mph - N/A   Clear
5:55 AM 47.3 °F - 38.5 °F 71% 29.98 in 10.0 mi South 11.5 mph - N/A   Clear
6:15 AM 46.8 °F - 38.3 °F 72% 29.98 in 10.0 mi South 10.4 mph - N/A   Clear
6:35 AM 45.9 °F 40.0 °F 38.3 °F 75% 29.98 in 10.0 mi SSE 12.7 mph - N/A   Clear
7:15 AM 48.4 °F - 39.2 °F 71% 30.00 in 10.0 mi South 12.7 mph - N/A   Clear
7:35 AM 48.2 °F - 39.2 °F 71% 30.02 in 10.0 mi South 5.8 mph - N/A   Clear
7:55 AM 48.4 °F - 39.4 °F 71% 30.03 in 10.0 mi South 8.1 mph - N/A   Clear
8:15 AM 48.4 °F - 39.6 °F 72% 30.06 in 10.0 mi South 4.6 mph - N/A   Clear
8:35 AM 49.8 °F - 40.1 °F 69% 30.06 in 10.0 mi WSW 3.5 mph - N/A   Clear
8:55 AM 45.7 °F 37.1 °F 33.3 °F 62% 30.09 in 10.0 mi NNW 24.2 mph 28.8 mph N/A   Clear
9:15 AM 38.8 °F 27.6 °F 31.8 °F 76% 30.11 in 10.0 mi NNW 26.5 mph 29.9 mph N/A   Clear
9:35 AM 39.4 °F 28.5 °F 32.0 °F 75% 30.12 in 10.0 mi NNW 25.3 mph 29.9 mph N/A   Clear
9:55 AM 38.3 °F 26.6 °F 31.8 °F 77% 30.11 in 10.0 mi NNW 27.6 mph - N/A   Clear
10:15 AM 38.7 °F 26.5 °F 31.6 °F 76% 30.12 in 10.0 mi North 31.1 mph 35.7 mph N/A   Clear
10:35 AM 37.8 °F 26.3 °F 31.1 °F 77% 30.12 in 10.0 mi North 25.3 mph 32.2 mph N/A   Scattered Clouds
11:15 AM 40.6 °F 30.2 °F 31.8 °F 71% 30.12 in 10.0 mi North 25.3 mph 32.2 mph N/A   Mostly Cloudy
11:35 AM 41.4 °F 31.2 °F 32.0 °F 69% 30.13 in 10.0 mi North 25.3 mph 31.1 mph N/A   Overcast
11:55 AM 40.3 °F 31.0 °F 31.8 °F 72% 30.13 in 10.0 mi North 19.6 mph 31.1 mph N/A   Overcast
12:15 PM 41.4 °F 31.9 °F 32.0 °F 69% 30.13 in 10.0 mi North 21.9 mph 29.9 mph N/A   Mostly Cloudy
12:35 PM 43.9 °F 34.5 °F 32.0 °F 63% 30.13 in 10.0 mi North 25.3 mph 29.9 mph N/A   Scattered Clouds
1:15 PM 45.3 °F 37.6 °F 33.1 °F 62% 30.12 in 10.0 mi NNE 19.6 mph 25.3 mph N/A   Clear
1:35 PM 45.7 °F 38.0 °F 33.1 °F 61% 30.12 in 10.0 mi North 19.6 mph 27.6 mph N/A   Scattered Clouds
1:55 PM 44.8 °F 37.7 °F 33.1 °F 64% 30.12 in 10.0 mi North 16.1 mph 25.3 mph N/A   Scattered Clouds
2:15 PM 46.9 °F - 33.1 °F 59% 30.12 in 10.0 mi North 18.4 mph 24.2 mph N/A   Scattered Clouds
2:35 PM 43.7 °F 36.0 °F 32.4 °F 64% 30.11 in 10.0 mi NNE 17.3 mph 24.2 mph N/A   Scattered Clouds
3:15 PM 39.9 °F 30.8 °F 31.6 °F 72% 30.10 in 10.0 mi NNE 18.4 mph 23.0 mph N/A   Overcast
3:35 PM 38.3 °F 29.0 °F 31.5 °F 76% 30.09 in 10.0 mi NNE 17.3 mph 26.5 mph N/A   Overcast
4:15 PM 37.0 °F 26.4 °F 31.6 °F 81% 30.08 in 10.0 mi NNE 20.7 mph 25.3 mph N/A   Overcast
4:35 PM 37.2 °F 27.3 °F 31.8 °F 81% 30.07 in 10.0 mi NNE 18.4 mph 24.2 mph N/A   Overcast
4:55 PM 37.4 °F 27.8 °F 31.3 °F 79% 30.07 in 7.0 mi NNE 17.3 mph 24.2 mph N/A   Overcast
5:15 PM 37.6 °F 28.4 °F 30.9 °F 77% 30.07 in 7.0 mi NE 16.1 mph 20.7 mph N/A   Overcast
5:35 PM 37.6 °F 28.1 °F 30.4 °F 75% 30.06 in 10.0 mi NE 17.3 mph - N/A   Overcast
5:55 PM 38.1 °F 29.1 °F 29.5 °F 71% 30.05 in 10.0 mi NE 16.1 mph - N/A   Overcast
6:15 PM 36.9 °F 27.5 °F 28.6 °F 72% 30.04 in 10.0 mi NE 16.1 mph 24.2 mph N/A   Overcast
6:35 PM 36.0 °F 26.0 °F 28.0 °F 73% 30.04 in 10.0 mi NE 17.3 mph 21.9 mph N/A   Overcast
6:55 PM 35.1 °F 25.5 °F 27.3 °F 73% 30.04 in 10.0 mi NE 15.0 mph 21.9 mph N/A   Overcast
7:15 PM 34.7 °F 24.7 °F 27.3 °F 74% 30.04 in 10.0 mi NNE 16.1 mph 20.7 mph N/A   Overcast
7:35 PM 33.4 °F 23.1 °F 28.4 °F 82% 30.05 in 10.0 mi NE 16.1 mph - N/A   Overcast
7:55 PM 32.9 °F 23.2 °F 28.9 °F 85% 30.05 in 10.0 mi NE 13.8 mph 23.0 mph N/A   Overcast
8:15 PM 32.5 °F 22.3 °F 29.1 °F 87% 30.05 in 10.0 mi NE 15.0 mph 20.7 mph N/A   Overcast
8:35 PM 32.5 °F 22.3 °F 28.6 °F 85% 30.05 in 10.0 mi NE 15.0 mph 20.7 mph N/A   Overcast
8:55 PM 32.0 °F 20.5 °F 28.9 °F 88% 30.06 in 10.0 mi NE 18.4 mph - N/A   Overcast
9:15 PM 32.0 °F 21.6 °F 28.4 °F 87% 30.07 in 10.0 mi NE 15.0 mph - N/A   Overcast
9:35 PM 32.0 °F 22.5 °F 27.3 °F 83% 30.08 in 10.0 mi NE 12.7 mph 18.4 mph N/A   Overcast
9:55 PM 31.8 °F 22.3 °F 27.3 °F 83% 30.10 in 10.0 mi NNE 12.7 mph - N/A   Overcast
10:15 PM 31.8 °F 21.4 °F 27.0 °F 82% 30.10 in 10.0 mi NE 15.0 mph - N/A   Overcast
10:35 PM 31.6 °F 21.6 °F 25.7 °F 79% 30.11 in 10.0 mi NNE 13.8 mph - N/A   Overcast
10:55 PM 31.1 °F 20.1 °F 25.9 °F 81% 30.11 in 10.0 mi NNE 16.1 mph - N/A   Overcast
11:15 PM 30.9 °F 20.2 °F 26.1 °F 82% 30.12 in 10.0 mi NNE 15.0 mph - N/A   Overcast
11:35 PM 30.9 °F 20.7 °F 25.9 °F 82% 30.11 in 10.0 mi NNE 13.8 mph 19.6 mph N/A   Overcast
11:55 PM 31.1 °F 20.5 °F 25.9 °F 81% 30.12 in 10.0 mi NNE 15.0 mph - N/A   Overcast